Regional Weather Roundup
Issued by NWS Green Bay, WI

Home | Current Version | Previous Version | Text Only | Print | Product List | Glossary On
Versions: 1 2 3 4 5 6 7 8 9 10 11 12 13 14 15 16 17 18 19 20 21 22 23 24 25 26 27 28 29 30 31 32 33 34 35 36 37 38 39 40 41 42 43 44 45 46 47 48 49 50
134
ASUS43 KGRB 270700
RWRGRB

NORTH-CENTRAL AND NORTHEAST WISCONSIN REGIONAL WEATHER ROUNDUP
NATIONAL WEATHER SERVICE GREEN BAY WI
200 AM CDT WED JUL 27 2016

WIZ005-009-010>012-018-019-270800-
NORTH CENTRAL WISCONSIN

CITY           SKY/WX    TMP DP  RH WIND       PRES   REMARKS
IRONWOOD       CLOUDY    70  68  94 CALM      29.97S
MANITOWISH WTR NOT AVBL
ARBOR VITAE    NOT AVBL
EAGLE RIVER    NOT AVBL
LAND O LAKES   NOT AVBL
RHINELANDER    LGT RAIN  66  59  78 N10G17    30.01F
PHILLIPS       NOT AVBL
ANTIGO         NOT AVBL
TOMAHAWK       NOT AVBL
MERRILL        NOT AVBL
$$

WIZ013-073-270800-
NORTHEAST WISCONSIN

CITY           SKY/WX    TMP DP  RH WIND       PRES   REMARKS
IRON MOUNTAIN  PTCLDY    65  62  90 CALM      29.97S
MARINETTE      CLEAR    N/A N/A N/A CALM      29.95S
$$

WIZ017-030-035>037-045-270800-
CENTRAL WISCONSIN

CITY           SKY/WX    TMP DP  RH WIND       PRES   REMARKS
MEDFORD        NOT AVBL
WAUSAU         CLEAR     72  67  84 NW7       29.99S
MOSINEE        NOT AVBL
MARSHFIELD     CLEAR     71  66  84 W3        30.01S
WISC RAPIDS    MOCLDY    71  65  81 SW5       30.01F
STEVENS POINT  NOT AVBL
WAUPACA        NOT AVBL
SHAWANO        NOT AVBL
CLINTONVILLE   NOT AVBL
WAUTOMA        PTCLDY    69  67  93 CALM      30.00F
$$

WIZ038-039-048-051-270800-
FOX VALLEY

CITY           SKY/WX    TMP DP  RH WIND       PRES   REMARKS
NWS GREEN BAY  CLEAR     72  70  93 W7        29.96S
APPLETON       NOT AVBL
OSHKOSH        CLEAR     73  66  78 W5        29.98S
FOND DU LAC    CLEAR     70  65  84 SW5       29.99F
$$

WIZ022-050-052-270800-
EAST CENTRAL WISCONSIN

CITY           SKY/WX    TMP DP  RH WIND       PRES   REMARKS
EPHRAIM        NOT AVBL
WASHINGTON ISL NOT AVBL
STURGEON BAY   MOCLDY    75  69  81 W8        29.96R
MANITOWOC      NOT AVBL
SHEBOYGAN      CLEAR     68  64  87 SW6       29.98F
$$

LMZ563-521-522-541>543-270800-
LAKESHORE

STATION/POSITION TIME  TEMP    WIND        PRES    VSBY  WAVE
                       AIR SEA DIR/SP/G                  HT/PER
                 (UTC) (F)     (DEG/KT/KT) (MB)    (MI)  (FT/S)
SHEBOYGAN LKSHOR 0600   72     240/  4/  5 1015.2F
KEWAUNEE LKSHORE 0600   76     260/  6/  9 1013.7F
ALGOMA MARINA    0613          250/  8/ 10   N/A
NORTHPORT PIER   0600   76     290/  7/ 12 1013.2S
N MID LAKE BUOY  0550   71 69  250/ 10/ 12 1012.5R         3/ 5
S GREEN BAY BUOY 0600   76 74  230/ 10/ 12   N/A
SISTER BAY LKSHO 0621   75     310/  6/  7   N/A
CHAMBERS ISLAND  0600   74     220/  3/  4 1013.5S
MENOMINEE LKSHOR 0600   76     250/  6/  8 1013.0S
$$




USA.gov is the U.S. government's official web portal to all federal, state and local government web resources and services.